Regional Weather Roundup
Issued by NWS Sterling, VA

Home | Current Version | Previous Version | Text Only | Print | Product List | Glossary On
Versions: 1 2 3 4 5 6 7 8 9 10 11 12 13 14 15 16 17 18 19 20 21 22 23 24 25 26 27
000
ASUS41 KLWX 150211
RWRLWX

REGIONAL WEATHER ROUNDUP
NATIONAL WEATHER SERVICE BALTIMORE MD/WASHINGTON DC
900 PM EST THU DEC 14 2017

Note: "FAIR" indicates few or no clouds below 12,000 feet
with no significant weather and/or obstructions to visibility.
 TC=TEMPERATURE CELSIUS

 * =Non NWS site. Station does not report precipitation (e.g. rain,
    snow, etc.), thunder, or fog.

DCZ001-MDZ009-015-VAZ040>042-051-053>054-150300-
WASHINGTON METRO

CITY           SKY/WX    TMP DP  RH WIND       PRES   REMARKS
WASHINGTON NAT CLOUDY    34  15  46 N14       30.10R WCI  25
DULLES         CLOUDY    31  15  52 NW12      30.08R WCI  22
ANDREWS AFB    MOCLDY    31  15  52 CALM      30.07R
FT BELVOIR     CLOUDY    33  15  46 N9        30.10R WCI  25
QUANTICO       MOCLDY    35  18  49 NE7       30.11R
COLLEGE PARK*  MOCLDY    32  14  47 NW3       30.09R
LEESBURG*      CLOUDY    32  18  55 N13G20    30.08S WCI  22
MANASSAS*      CLOUDY    31  18  58 N8        30.09R WCI  23
GAITHERSBURG*  CLOUDY    28  16  60 VRB3      30.07S

$$

MDZ006>007-011-014-150300-
BALTIMORE METRO

CITY           SKY/WX    TMP DP  RH WIND       PRES   REMARKS
BWI AIRPORT    MOCLDY    31  14  49 NW8       30.08R WCI  23
MD SCIENCE CTR   N/A     34  14  43 MISG      30.09R
MARTIN STATE   PTCLDY    32  14  47 CALM      30.12R
ANNAPOLIS      PTCLDY    34  19  54 N10       30.09R WCI  26
FORT MEADE*    CLOUDY    32  16  51 N6        30.10S

$$

MDZ012-015-019>023-150300-
MARYLAND EASTERN SHORE

CITY           SKY/WX    TMP DP  RH WIND       PRES   REMARKS
OCEAN CITY     PTCLDY    32  20  61 N7        30.07R
SALISBURY      CLOUDY    31  18  58 N5        30.07R
CAMBRIDGE*     PTCLDY    34  18  51 N10       30.07R WCI  26
EASTON*        CLEAR     32  16  51 N6        30.12R

$$

MDZ017>025-150300-
SOUTHERN MARYLAND

CITY           SKY/WX    TMP DP  RH WIND       PRES   REMARKS
PATUXENT RIVER CLOUDY    35  18  49 N9        30.08R WCI  28
ST INIGOES     PTCLDY    35  18  49 VRB5      30.07R
LEONARDTOWN*   CLOUDY    34  18  51 N3        30.09R

$$

MDZ003>005-150300-
NORTH CENTRAL MARYLAND

CITY           SKY/WX    TMP DP  RH WIND       PRES   REMARKS
FREDERICK*     CLEAR     30   9  40 MISG      30.12R
HAGERSTOWN APT PTCLDY    26  10  50 N8        30.08R WCI  18
WESTMINSTER*   CLOUDY    28  10  47 NW6       30.06R

$$

MDZ501>502-150300-
WESTERN MARYLAND

CITY           SKY/WX    TMP DP  RH WIND       PRES   REMARKS
OAKLAND*       CLOUDY    18  14  86 CALM      29.89S
CUMBERLAND*    CLOUDY    27  14  59 CALM      30.11S

$$

VAZ025>031-150300-
SHENANDOAH VALLEY

CITY           SKY/WX    TMP DP  RH WIND       PRES   REMARKS
WINCHESTER*    PTCLDY    28  14  54 N3        30.06S
FRONT ROYAL*   FAIR      30  19  64 CALM      30.05S
LURAY*         PTCLDY    32  23  69 NE5       30.04R
NEW MARKET*    PTCLDY    27  20  73 CALM      30.03S
STAUNTON*      PTCLDY    24  18  78 CALM      30.04R
WAYNESBORO*    CLOUDY    31  18  57 CALM      30.01R

$$

WVZ021-048>050-054>055-150300-
EASTERN WEST VIRGINIA PANHANDLE

CITY           SKY/WX    TMP DP  RH WIND       PRES   REMARKS
MARTINSBURG    CLOUDY    27  12  53 N7        30.08R
PETERSBURG*    CLOUDY    29  21  70 CALM      30.03S

$$

VAZ036>039-050-150300-
CENTRAL FOOTHILLS

CITY           SKY/WX    TMP DP  RH WIND       PRES   REMARKS
CHARLOTTESVILL PTCLDY    34  19  54 E5        30.04R
CULPEPER*      FAIR      32  16  52 NE5       30.08S
ORANGE*        PTCLDY    30  19  64 CALM      30.06R
GORDONSVILLE*  MOCLDY    30  20  67 NE3       30.05R
WARRENTON*     CLOUDY    32  15  49 N6        30.07R

$$

VAZ055>057-150300-
NORTH AND CENTRAL PIEDMONT

CITY           SKY/WX    TMP DP  RH WIND       PRES   REMARKS
FREDERICKSBRG* MOCLDY    34  21  57 N6        30.08R
STAFFORD*      MOCLDY    32  19  58 N3        30.12R

$$

NCZ024-NYZ072-PAZ021-071-VAZ022-071-150300-
OTHER REGIONAL OBSERVATIONS

CITY           SKY/WX    TMP DP  RH WIND       PRES   REMARKS
NEW YORK CITY  PTCLDY    25   6  44 MISG      30.08R
PHILADELPHIA   MOCLDY    29   9  43 NW6       30.09R
PITTSBURGH     CLOUDY    19  11  70 CALM      30.03F
ROANOKE        PTCLDY    33  21  61 NE8       30.01F WCI  26
RICHMOND       MOCLDY    37  20  50 NE7       30.07R
RALEIGH        PTCLDY    42  27  55 NE7       30.01R

$$

ANZ530>537-150300-
MARINE OBSERVATIONS

STATION/POSITION TIME  TEMP    WIND        PRES
                       AIR SEA DIR/SP/G
                 (UTC) (F)     (DEG/KT/KT) (MB)
THOMAS PT LIGHT  0200   34 46  340/ 12/ 16   N/A
BALT KEY BRIDGE  0142   33     350/  9/ 10 1018.9R
COVE POINT       0142   36      10/ 18/ 22 1019.0R
LEWISETTA        0142   37 42   20/  8/ 11 1018.4R
SOLOMONS ISLAND  0142   36 45  340/  7/ 10 1018.1R
PINEY POINT      0148           50/  6/  7   N/A

$$





USA.gov is the U.S. government's official web portal to all federal, state and local government web resources and services.